Location: Cosy Dell
(34.2789°N, 117.4537°W)
Time: 12:16:26
(UTC+00:00)

Cosmos 1605 Rocket - Pass Details

Date: 14 July 2020
Orbit: 944 x 1007 km, 82.9° (Epoch: 08 August)

Event Time Altitude Azimuth Distance (km) Brightness Sun altitude
Exits shadow 08:10:38 60° 20° (NNE) 1,122 4.4 -34.0°
Drops below altitude 10° 08:15:41 10° 8° (N) 2,735 7.2 -33.9°
Sets 08:18:11 0° 8° (N) 3,676 8.1 -33.9°
